| time (UTC) | temp C | wind direction | speed KPH | gust KPH | rain 1hr cm | rain 24hr cm | rain mn cm | humidity % | barometer mb |
| 20260906034602 | 10 | 0 | 0.0 | 3.2 | 0.00 | 0.64 | 0.00 | 97 | 1003.3 |
| 20260906033101 | 10 | 215 | 0.0 | 3.2 | 0.00 | 0.64 | 0.00 | 97 | 1003.0 |
| 20260906031607 | 10 | 208 | 0.0 | 3.2 | 0.00 | 0.64 | 0.00 | 97 | 1003.0 |
| 20260906024608 | 8 | 0 | 0.0 | 0.0 | 0.00 | 0.66 | 0.00 | 96 | 1002.7 |
| 20260906023105 | 9 | 0 | 0.0 | 1.6 | 0.00 | 0.66 | 0.00 | 96 | 1002.5 |
| 20260906021608 | 9 | 0 | 0.0 | 3.2 | 0.00 | 0.66 | 0.00 | 96 | 1002.4 |
| 20260906020107 | 9 | 0 | 0.0 | 1.6 | 0.00 | 0.66 | 0.00 | 96 | 1002.2 |
| 20260906014604 | 9 | 0 | 0.0 | 3.2 | 0.00 | 0.66 | 0.00 | 96 | 1002.1 |
| 20260906013104 | 10 | 0 | 0.0 | 3.2 | 0.00 | 0.66 | 0.00 | 96 | 1002.2 |
| 20260906011602 | 10 | 216 | 0.0 | 3.2 | 0.00 | 0.66 | 0.00 | 96 | 1002.1 |
| 20260906010104 | 10 | 0 | 0.0 | 1.6 | 0.00 | 0.66 | 0.00 | 96 | 1001.9 |
| 20260906004604 | 10 | 274 | 0.0 | 3.2 | 0.00 | 0.69 | 0.00 | 96 | 1001.8 |
| 20260906003108 | 10 | 0 | 0.0 | 3.2 | 0.00 | 0.69 | 0.00 | 96 | 1001.8 |
| 20260906001603 | 10 | 275 | 0.0 | 3.2 | 0.00 | 0.69 | 0.00 | 96 | 1001.7 |
| 20260906000108 | 10 | 0 | 0.0 | 1.6 | 0.00 | 0.69 | 0.00 | 96 | 1001.5 |
| 20260905234603 | 10 | 0 | 0.0 | 1.6 | 0.00 | 0.74 | 0.00 | 95 | 1001.5 |
| 20260905233107 | 10 | 275 | 0.0 | 1.6 | 0.00 | 0.74 | 0.00 | 95 | 1001.5 |
| 20260905231609 | 10 | 0 | 0.0 | 1.6 | 0.00 | 0.74 | 0.00 | 95 | 1001.4 |
| 20260905230112 | 10 | 267 | 0.0 | 3.2 | 0.00 | 0.74 | 0.00 | 95 | 1001.3 |
| 20260905224611 | 10 | 262 | 0.0 | 3.2 | 0.00 | 0.79 | 0.00 | 95 | 1001.3 |
| 20260905223107 | 11 | 0 | 0.0 | 3.2 | 0.00 | 0.79 | 0.00 | 94 | 1001.3 |
| 20260905221607 | 11 | 0 | 0.0 | 4.8 | 0.00 | 0.79 | 0.00 | 95 | 1001.2 |
| 20260905220110 | 11 | 267 | 0.0 | 3.2 | 0.00 | 0.79 | 0.00 | 94 | 1001.0 |
| 20260905214603 | 11 | 265 | 1.6 | 4.8 | 0.00 | 0.94 | 0.00 | 94 | 1000.9 |
| 20260905213105 | 11 | 0 | 0.0 | 3.2 | 0.00 | 0.94 | 0.00 | 94 | 1000.7 |
| 20260905211630 | 12 | 256 | 1.6 | 6.4 | 0.00 | 0.94 | 0.00 | 94 | 1000.7 |
| 20260905210124 | 12 | 0 | 0.0 | 4.8 | 0.00 | 0.94 | 0.00 | 94 | 1000.5 |
| 20260905204607 | 12 | 296 | 0.0 | 4.8 | 0.00 | 0.94 | 0.94 | 94 | 1000.4 |
| 20260905203119 | 12 | 296 | 1.6 | 4.8 | 0.00 | 0.94 | 0.94 | 94 | 1000.3 |
| 20260905201604 | 12 | 301 | 0.0 | 6.4 | 0.00 | 0.94 | 0.94 | 94 | 1000.1 |
| 20260905200107 | 12 | 305 | 1.6 | 4.8 | 0.00 | 0.94 | 0.94 | 94 | 1000.1 |
| 20260905194608 | 12 | 282 | 1.6 | 4.8 | 0.00 | 1.32 | 0.94 | 94 | 999.8 |
| 20260905193108 | 12 | 269 | 3.2 | 4.8 | 0.00 | 1.30 | 0.91 | 94 | 999.8 |
| 20260905191605 | 12 | 254 | 1.6 | 3.2 | 0.00 | 1.30 | 0.91 | 93 | 999.5 |
| 20260905190105 | 12 | 0 | 0.0 | 3.2 | 0.00 | 1.30 | 0.91 | 92 | 999.6 |
| 20260905184610 | 12 | 0 | 0.0 | 1.6 | 0.00 | 1.40 | 0.91 | 93 | 999.5 |
| 20260905183107 | 13 | 0 | 0.0 | 3.2 | 0.00 | 1.40 | 0.91 | 93 | 999.5 |
| 20260905181612 | 13 | 291 | 0.0 | 3.2 | 0.00 | 1.40 | 0.91 | 93 | 999.4 |
| 20260905180108 | 13 | 291 | 0.0 | 1.6 | 0.00 | 1.40 | 0.91 | 93 | 999.3 |
| 20260905174604 | 13 | 0 | 0.0 | 0.0 | 0.00 | 1.40 | 0.91 | 92 | 999.1 |
| 20260905173105 | 13 | 0 | 0.0 | 0.0 | 0.00 | 1.40 | 0.91 | 92 | 999.0 |
| 20260905171603 | 13 | 0 | 0.0 | 0.0 | 0.00 | 1.40 | 0.91 | 91 | 998.8 |
| 20260905170108 | 13 | 0 | 0.0 | 1.6 | 0.00 | 1.40 | 0.91 | 91 | 998.7 |
| 20260905164606 | 13 | 0 | 0.0 | 1.6 | 0.00 | 1.40 | 0.91 | 89 | 998.6 |
| 20260905163109 | 13 | 0 | 0.0 | 1.6 | 0.00 | 1.40 | 0.91 | 89 | 998.4 |
| 20260905161604 | 13 | 0 | 0.0 | 3.2 | 0.00 | 1.40 | 0.91 | 88 | 998.5 |
| 20260905160137 | 13 | 0 | 0.0 | 3.2 | 0.00 | 1.40 | 0.91 | 87 | 998.3 |
| 20260905154604 | 13 | 0 | 0.0 | 3.2 | 0.00 | 1.40 | 0.91 | 88 | 998.3 |
| 20260905153103 | 13 | 0 | 0.0 | 1.6 | 0.00 | 1.40 | 0.91 | 87 | 998.1 |
| 20260905151608 | 13 | 0 | 0.0 | 3.2 | 0.00 | 1.40 | 0.91 | 86 | 998.0 |
| 20260905150104 | 14 | 0 | 1.6 | 6.4 | 0.00 | 1.40 | 0.91 | 84 | 998.0 |
| 20260905144609 | 16 | 0 | 1.6 | 11.3 | 0.00 | 1.40 | 0.91 | 79 | 997.9 |
| 20260905143112 | 17 | 298 | 3.2 | 11.3 | 0.00 | 1.40 | 0.91 | 80 | 997.3 |
| 20260905141606 | 16 | 285 | 1.6 | 9.7 | 0.00 | 1.40 | 0.91 | 85 | 997.3 |
| 20260905140105 | 16 | 279 | 1.6 | 9.7 | 0.00 | 1.40 | 0.91 | 84 | 997.2 |
| 20260905134622 | 15 | 244 | 3.2 | 6.4 | 0.00 | 1.40 | 0.91 | 86 | 997.1 |
| 20260905133101 | 15 | 277 | 3.2 | 6.4 | 0.00 | 1.40 | 0.91 | 85 | 997.2 |
| 20260905131606 | 14 | 241 | 0.0 | 3.2 | 0.05 | 1.40 | 0.91 | 86 | 997.0 |
| 20260905124602 | 13 | 0 | 0.0 | 1.6 | 0.05 | 1.40 | 0.91 | 86 | 996.8 |
| 20260905123105 | 14 | 340 | 0.0 | 12.9 | 0.03 | 1.40 | 0.89 | 84 | 996.7 |
| 20260905121602 | 15 | 281 | 3.2 | 9.7 | 0.00 | 1.35 | 0.84 | 84 | 996.5 |
| 20260905120120 | 16 | 292 | 4.8 | 12.9 | 0.00 | 1.35 | 0.84 | 81 | 996.1 |
| 20260905114605 | 17 | 321 | 6.4 | 14.5 | 0.00 | 1.35 | 0.84 | 80 | 995.9 |
| 20260905113120 | 17 | 292 | 6.4 | 17.7 | 0.00 | 1.35 | 0.84 | 78 | 995.8 |
| 20260905111615 | 17 | 228 | 4.8 | 11.3 | 0.00 | 1.35 | 0.84 | 77 | 995.8 |
| 20260905110109 | 16 | 267 | 3.2 | 11.3 | 0.00 | 1.35 | 0.84 | 79 | 995.8 |
| 20260905104603 | 17 | 302 | 6.4 | 12.9 | 0.00 | 1.35 | 0.84 | 77 | 995.5 |
| 20260905103102 | 16 | 327 | 4.8 | 11.3 | 0.00 | 1.35 | 0.84 | 77 | 995.6 |
| 20260905101606 | 16 | 265 | 3.2 | 11.3 | 0.00 | 1.35 | 0.84 | 82 | 995.4 |
| 20260905100110 | 16 | 288 | 4.8 | 12.9 | 0.00 | 1.35 | 0.84 | 83 | 995.5 |
| 20260905094607 | 15 | 292 | 1.6 | 8.0 | 0.00 | 1.35 | 0.84 | 83 | 995.5 |
| 20260905093102 | 15 | 315 | 3.2 | 12.9 | 0.00 | 1.35 | 0.84 | 87 | 995.4 |
| 20260905091624 | 15 | 276 | 3.2 | 9.7 | 0.00 | 1.35 | 0.84 | 88 | 995.2 |
| 20260905090121 | 14 | 288 | 3.2 | 9.7 | 0.00 | 1.35 | 0.84 | 90 | 995.2 |
| 20260905084610 | 14 | 267 | 3.2 | 9.7 | 0.00 | 1.40 | 0.84 | 91 | 995.1 |
| 20260905083101 | 13 | 273 | 1.6 | 9.7 | 0.00 | 1.40 | 0.84 | 92 | 995.0 |
| 20260905081603 | 13 | 336 | 1.6 | 6.4 | 0.00 | 1.40 | 0.84 | 93 | 994.9 |
| 20260905080106 | 13 | 322 | 3.2 | 6.4 | 0.03 | 1.40 | 0.84 | 95 | 994.8 |
| 20260905074603 | 13 | 279 | 1.6 | 6.4 | 0.08 | 1.47 | 0.84 | 96 | 994.8 |
| 20260905073107 | 12 | 309 | 3.2 | 11.3 | 0.08 | 1.45 | 0.84 | 95 | 994.8 |
| 20260905071612 | 12 | 273 | 3.2 | 9.7 | 0.10 | 1.45 | 0.84 | 96 | 994.6 |
| 20260905070124 | 12 | 273 | 3.2 | 8.0 | 0.15 | 1.42 | 0.81 | 96 | 994.4 |
| 20260905064615 | 12 | 288 | 4.8 | 12.9 | 0.18 | 1.40 | 0.76 | 96 | 994.3 |
| 20260905063102 | 12 | 284 | 4.8 | 9.7 | 0.15 | 1.35 | 0.74 | 96 | 994.2 |
| 20260905061624 | 12 | 271 | 3.2 | 6.4 | 0.18 | 1.32 | 0.71 | 96 | 994.0 |
| 20260905060119 | 12 | 0 | 0.0 | 4.8 | 0.18 | 1.27 | 0.64 | 96 | 994.0 |
| 20260905054605 | 12 | 300 | 0.0 | 6.4 | 0.15 | 1.24 | 0.58 | 96 | 993.7 |
| 20260905053058 | 12 | 292 | 3.2 | 6.4 | 0.13 | 1.22 | 0.56 | 96 | 993.6 |
| 20260905051608 | 12 | 293 | 3.2 | 8.0 | 0.10 | 1.17 | 0.51 | 97 | 993.6 |
| 20260905044603 | 12 | 0 | 0.0 | 4.8 | 0.13 | 1.14 | 0.43 | 97 | 993.4 |
| 20260905043100 | 12 | 0 | 0.0 | 3.2 | 0.13 | 1.14 | 0.43 | 97 | 993.3 |
| 20260905041608 | 12 | 276 | 1.6 | 3.2 | 0.10 | 1.12 | 0.38 | 97 | 993.4 |
| 20260905040105 | 12 | 0 | 0.0 | 1.6 | 0.00 | 1.02 | 0.28 | 97 | 993.2 |